Time,TemperatureF,DewpointF,PressureIn,WindDirection,WindDirectionDegrees,WindSpeedMPH,WindSpeedGustMPH,Humidity,HourlyPrecipIn,Conditions,Clouds,dailyrainin,SolarRadiationWatts/m^2,SoftwareType,DateUTC
2013-02-15 00:02:00,35.0,26.0,-100.00,SSW,203,9.0,15.0,68,0.00,,,0.05,0.000000,,2013-02-15 05:02:00,
2013-02-15 00:32:00,35.0,25.0,-100.00,South,189,9.0,19.0,67,0.00,,,0.05,0.000000,,2013-02-15 05:32:00,
2013-02-15 00:42:00,35.0,25.0,-100.00,South,189,9.0,19.0,67,0.00,,,0.05,0.000000,,2013-02-15 05:42:00,
2013-02-15 00:52:00,35.0,25.0,-100.00,South,189,9.0,19.0,67,0.00,,,0.05,0.000000,,2013-02-15 05:52:00,
2013-02-15 01:02:00,35.0,25.0,-100.00,South,189,9.0,19.0,67,0.00,,,0.05,0.000000,,2013-02-15 06:02:00,
2013-02-15 01:32:00,35.0,25.0,-100.00,South,189,14.0,22.0,67,0.00,,,-99.99,0.000000,,2013-02-15 06:32:00,
2013-02-15 01:42:00,35.0,25.0,-100.00,South,189,14.0,22.0,67,0.00,,,-99.99,0.000000,,2013-02-15 06:42:00,
2013-02-15 01:52:00,35.0,25.0,-100.00,South,189,14.0,22.0,67,0.00,,,-99.99,0.000000,,2013-02-15 06:52:00,
2013-02-15 02:01:00,35.0,25.0,-100.00,South,189,14.0,22.0,67,0.00,,,-99.99,0.000000,,2013-02-15 07:01:00,
2013-02-15 02:32:00,33.0,24.0,-100.00,SSW,192,11.0,24.0,69,0.00,,,0.05,0.000000,,2013-02-15 07:32:00,
2013-02-15 02:42:00,33.0,24.0,-100.00,SSW,192,11.0,24.0,69,0.00,,,0.05,0.000000,,2013-02-15 07:42:00,
2013-02-15 02:52:00,33.0,24.0,-100.00,SSW,192,11.0,24.0,69,0.00,,,0.05,0.000000,,2013-02-15 07:52:00,
2013-02-15 03:01:00,33.0,24.0,-100.00,SSW,192,11.0,24.0,69,0.00,,,0.05,0.000000,,2013-02-15 08:01:00,
2013-02-15 03:32:00,34.0,25.0,-100.00,SSW,213,10.0,18.0,69,0.00,,,-99.99,0.000000,,2013-02-15 08:32:00,
2013-02-15 03:42:00,34.0,25.0,-100.00,SSW,213,10.0,18.0,69,0.00,,,-99.99,0.000000,,2013-02-15 08:42:00,
2013-02-15 03:53:00,34.0,25.0,-100.00,SSW,213,10.0,18.0,69,0.00,,,-99.99,0.000000,,2013-02-15 08:53:00,
2013-02-15 04:02:00,34.0,25.0,-100.00,SSW,213,10.0,18.0,69,0.00,,,-99.99,0.000000,,2013-02-15 09:02:00,
2013-02-15 04:32:00,36.0,26.0,-100.00,SW,232,8.0,16.0,66,0.00,,,0.05,0.000000,,2013-02-15 09:32:00,
2013-02-15 04:42:00,36.0,26.0,-100.00,SW,232,8.0,16.0,66,0.00,,,0.05,0.000000,,2013-02-15 09:42:00,
2013-02-15 04:52:00,36.0,26.0,-100.00,SW,232,8.0,16.0,66,0.00,,,0.05,0.000000,,2013-02-15 09:52:00,
2013-02-15 05:01:00,36.0,26.0,-100.00,SW,232,8.0,16.0,66,0.00,,,0.05,0.000000,,2013-02-15 10:01:00,
2013-02-15 05:32:00,36.0,25.0,-100.00,WSW,240,7.0,15.0,65,0.00,,,0.05,0.000000,,2013-02-15 10:32:00,
2013-02-15 05:42:00,36.0,25.0,-100.00,WSW,240,7.0,15.0,65,0.00,,,0.05,0.000000,,2013-02-15 10:42:00,
2013-02-15 05:52:00,36.0,25.0,-100.00,WSW,240,7.0,15.0,65,0.00,,,0.05,0.000000,,2013-02-15 10:52:00,
2013-02-15 06:01:00,36.0,25.0,-100.00,WSW,240,7.0,15.0,65,0.00,,,0.05,0.000000,,2013-02-15 11:01:00,
2013-02-15 06:32:00,35.0,26.0,-100.00,WSW,251,5.0,13.0,69,0.00,,,0.05,0.000000,,2013-02-15 11:32:00,
2013-02-15 06:43:00,35.0,26.0,-100.00,WSW,251,5.0,13.0,69,0.00,,,0.05,0.000000,,2013-02-15 11:43:00,
2013-02-15 06:52:00,35.0,26.0,-100.00,WSW,251,5.0,13.0,69,0.00,,,0.05,0.000000,,2013-02-15 11:52:00,
2013-02-15 07:02:00,35.0,26.0,-100.00,WSW,251,5.0,13.0,69,0.00,,,0.05,0.000000,,2013-02-15 12:02:00,
2013-02-15 07:32:00,35.0,27.0,-100.00,SW,234,7.0,14.0,73,0.00,,,0.05,3.000000,,2013-02-15 12:32:00,
2013-02-15 07:42:00,35.0,27.0,-100.00,SW,234,7.0,14.0,73,0.00,,,0.05,3.000000,,2013-02-15 12:42:00,
2013-02-15 07:52:00,35.0,27.0,-100.00,SW,234,7.0,14.0,73,0.00,,,0.05,3.000000,,2013-02-15 12:52:00,
2013-02-15 08:02:00,35.0,27.0,-100.00,SW,234,7.0,14.0,73,0.00,,,0.05,3.000000,,2013-02-15 13:02:00,
2013-02-15 08:32:00,36.0,28.0,-100.00,WSW,257,5.0,13.0,72,0.00,,,-99.99,64.000000,,2013-02-15 13:32:00,
2013-02-15 08:42:00,36.0,28.0,-100.00,WSW,257,5.0,13.0,72,0.00,,,-99.99,64.000000,,2013-02-15 13:42:00,
2013-02-15 08:52:00,36.0,28.0,-100.00,WSW,257,5.0,13.0,72,0.00,,,-99.99,64.000000,,2013-02-15 13:52:00,
2013-02-15 09:01:00,36.0,28.0,-100.00,WSW,257,5.0,13.0,72,0.00,,,-99.99,64.000000,,2013-02-15 14:01:00,
2013-02-15 09:32:00,40.0,28.0,-100.00,WSW,256,6.0,13.0,62,0.00,,,0.01,261.000000,,2013-02-15 14:32:00,
2013-02-15 10:02:00,40.0,28.0,-100.00,WSW,256,6.0,13.0,62,0.00,,,0.01,261.000000,,2013-02-15 15:02:00,
2013-02-15 10:32:00,43.0,30.0,-100.00,WSW,241,7.0,16.0,59,0.00,,,0.00,411.000000,,2013-02-15 15:32:00,
2013-02-15 10:42:00,43.0,30.0,-100.00,WSW,241,7.0,16.0,59,0.00,,,0.00,411.000000,,2013-02-15 15:42:00,
2013-02-15 10:52:00,43.0,30.0,-100.00,WSW,241,7.0,16.0,59,0.00,,,0.00,411.000000,,2013-02-15 15:52:00,
2013-02-15 11:02:00,43.0,30.0,-100.00,WSW,241,7.0,16.0,59,0.00,,,0.00,411.000000,,2013-02-15 16:02:00,
2013-02-15 11:32:00,44.0,29.0,-100.00,NNW,330,3.0,12.0,56,0.00,,,0.00,440.000000,,2013-02-15 16:32:00,
2013-02-15 11:43:00,44.0,29.0,-100.00,NNW,330,3.0,12.0,56,0.00,,,0.00,440.000000,,2013-02-15 16:43:00,
2013-02-15 11:52:00,44.0,29.0,-100.00,NNW,330,3.0,12.0,56,0.00,,,0.00,440.000000,,2013-02-15 16:52:00,
2013-02-15 12:01:00,44.0,29.0,-100.00,NNW,330,3.0,12.0,56,0.00,,,0.00,440.000000,,2013-02-15 17:01:00,
2013-02-15 12:32:00,45.0,30.0,-100.00,WNW,291,4.0,11.0,55,0.00,,,0.00,450.000000,,2013-02-15 17:32:00,
2013-02-15 12:42:00,45.0,30.0,-100.00,WNW,291,4.0,11.0,55,0.00,,,0.00,450.000000,,2013-02-15 17:42:00,
2013-02-15 12:52:00,45.0,30.0,-100.00,WNW,291,4.0,11.0,55,0.00,,,0.00,450.000000,,2013-02-15 17:52:00,
2013-02-15 13:02:00,45.0,30.0,-100.00,WNW,291,4.0,11.0,55,0.00,,,0.00,450.000000,,2013-02-15 18:02:00,
2013-02-15 13:32:00,44.0,28.0,-100.00,WNW,293,3.0,10.0,52,0.00,,,0.00,378.000000,,2013-02-15 18:32:00,
2013-02-15 13:42:00,44.0,28.0,-100.00,WNW,293,3.0,10.0,52,0.00,,,0.00,378.000000,,2013-02-15 18:42:00,
2013-02-15 13:53:00,44.0,28.0,-100.00,WNW,293,3.0,10.0,52,0.00,,,0.00,378.000000,,2013-02-15 18:53:00,
2013-02-15 14:02:00,44.0,28.0,-100.00,WNW,293,3.0,10.0,52,0.00,,,0.00,378.000000,,2013-02-15 19:02:00,
2013-02-15 14:32:00,44.0,27.0,-100.00,West,275,4.0,7.0,51,0.00,,,-99.99,295.000000,,2013-02-15 19:32:00,
2013-02-15 14:42:00,44.0,27.0,-100.00,West,275,4.0,7.0,51,0.00,,,-99.99,295.000000,,2013-02-15 19:42:00,
2013-02-15 14:52:00,44.0,27.0,-100.00,West,275,4.0,7.0,51,0.00,,,-99.99,295.000000,,2013-02-15 19:52:00,
2013-02-15 15:02:00,44.0,27.0,-100.00,West,275,4.0,7.0,51,0.00,,,-99.99,295.000000,,2013-02-15 20:02:00,
2013-02-15 15:32:00,43.0,25.0,-100.00,WNW,295,3.0,7.0,49,0.00,,,0.00,192.000000,,2013-02-15 20:32:00,
2013-02-15 15:42:00,43.0,25.0,-100.00,WNW,295,3.0,7.0,49,0.00,,,0.00,192.000000,,2013-02-15 20:42:00,
2013-02-15 15:52:00,43.0,25.0,-100.00,WNW,295,3.0,7.0,49,0.00,,,0.00,192.000000,,2013-02-15 20:52:00,
2013-02-15 16:02:00,43.0,25.0,-100.00,WNW,295,3.0,7.0,49,0.00,,,0.00,192.000000,,2013-02-15 21:02:00,
2013-02-15 16:32:00,42.0,23.0,-100.00,NW,325,2.0,7.0,46,0.00,,,0.00,143.000000,,2013-02-15 21:32:00,
2013-02-15 16:42:00,42.0,23.0,-100.00,NW,325,2.0,7.0,46,0.00,,,0.00,143.000000,,2013-02-15 21:42:00,
2013-02-15 16:52:00,42.0,23.0,-100.00,NW,325,2.0,7.0,46,0.00,,,0.00,143.000000,,2013-02-15 21:52:00,
2013-02-15 17:02:00,42.0,23.0,-100.00,NW,325,2.0,7.0,46,0.00,,,0.00,143.000000,,2013-02-15 22:02:00,
2013-02-15 17:32:00,39.0,22.0,-100.00,NW,307,3.0,9.0,50,0.00,,,0.00,40.000000,,2013-02-15 22:32:00,
2013-02-15 17:42:00,39.0,22.0,-100.00,NW,307,3.0,9.0,50,0.00,,,0.00,40.000000,,2013-02-15 22:42:00,
2013-02-15 17:52:00,39.0,22.0,-100.00,NW,307,3.0,9.0,50,0.00,,,0.00,40.000000,,2013-02-15 22:52:00,
2013-02-15 18:02:00,39.0,22.0,-100.00,NW,307,3.0,9.0,50,0.00,,,0.00,40.000000,,2013-02-15 23:02:00,
2013-02-15 18:32:00,36.0,26.0,-100.00,West,261,3.0,7.0,66,0.00,,,0.00,4.000000,,2013-02-15 23:32:00,
2013-02-15 18:42:00,36.0,26.0,-100.00,West,261,3.0,7.0,66,0.00,,,0.00,4.000000,,2013-02-15 23:42:00,
2013-02-15 18:52:00,36.0,26.0,-100.00,West,261,3.0,7.0,66,0.00,,,0.00,4.000000,,2013-02-15 23:52:00,
2013-02-15 19:02:00,36.0,26.0,-100.00,West,261,3.0,7.0,66,0.00,,,0.00,4.000000,,2013-02-16 00:02:00,
2013-02-15 19:32:00,32.0,32.0,-100.00,NNW,346,2.0,6.0,100,0.00,,,0.00,0.000000,,2013-02-16 00:32:00,
2013-02-15 19:42:00,32.0,32.0,-100.00,NNW,346,2.0,6.0,100,0.00,,,0.00,0.000000,,2013-02-16 00:42:00,
2013-02-15 19:52:00,32.0,32.0,-100.00,NNW,346,2.0,6.0,100,0.00,,,0.00,0.000000,,2013-02-16 00:52:00,
2013-02-15 20:02:00,32.0,32.0,-100.00,NNW,346,2.0,6.0,100,0.00,,,0.00,0.000000,,2013-02-16 01:02:00,
2013-02-15 20:32:00,31.0,31.0,-100.00,North,351,3.0,7.0,100,0.00,,,0.00,0.000000,,2013-02-16 01:32:00,
2013-02-15 20:42:00,31.0,31.0,-100.00,North,351,3.0,7.0,100,0.00,,,0.00,0.000000,,2013-02-16 01:42:00,
2013-02-15 20:52:00,31.0,31.0,-100.00,North,351,3.0,7.0,100,0.00,,,0.00,0.000000,,2013-02-16 01:52:00,
2013-02-15 21:01:00,31.0,31.0,-100.00,North,351,3.0,7.0,100,0.00,,,0.00,0.000000,,2013-02-16 02:01:00,
2013-02-15 21:32:00,31.0,31.0,-100.00,WNW,300,1.0,5.0,100,0.00,,,0.00,0.000000,,2013-02-16 02:32:00,
2013-02-15 21:42:00,31.0,31.0,-100.00,WNW,300,1.0,5.0,100,0.00,,,0.00,0.000000,,2013-02-16 02:42:00,
2013-02-15 21:52:00,31.0,31.0,-100.00,WNW,300,1.0,5.0,100,0.00,,,0.00,0.000000,,2013-02-16 02:52:00,
2013-02-15 22:02:00,31.0,31.0,-100.00,WNW,300,1.0,5.0,100,0.00,,,0.00,0.000000,,2013-02-16 03:02:00,
2013-02-15 22:32:00,30.0,30.0,-100.00,NNW,346,3.0,6.0,100,0.00,,,0.00,0.000000,,2013-02-16 03:32:00,
2013-02-15 22:42:00,30.0,30.0,-100.00,NNW,346,3.0,6.0,100,0.00,,,0.00,0.000000,,2013-02-16 03:42:00,
2013-02-15 22:52:00,30.0,30.0,-100.00,NNW,346,3.0,6.0,100,0.00,,,0.00,0.000000,,2013-02-16 03:52:00,
2013-02-15 23:01:00,30.0,30.0,-100.00,NNW,346,3.0,6.0,100,0.00,,,0.00,0.000000,,2013-02-16 04:01:00,
2013-02-15 23:32:00,30.0,30.0,-100.00,North,3,2.0,6.0,100,0.00,,,0.00,0.000000,,2013-02-16 04:32:00,
2013-02-15 23:42:00,30.0,30.0,-100.00,North,3,2.0,6.0,100,0.00,,,0.00,0.000000,,2013-02-16 04:42:00,
2013-02-15 23:52:00,30.0,30.0,-100.00,North,3,2.0,6.0,100,0.00,,,0.00,0.000000,,2013-02-16 04:52:00,